This is the latest recevied weather packets stored in our database for station/object IU1JVO-13. If no packets are shown the sender has not sent any weather packets the latest 1 day(s).
| Time | Temp. | Humidity | Pressure | Rain* | Wind** | Luminosity | Snow |
|---|---|---|---|---|---|---|---|
| 1777948912 | 8.89° C | 88% | 1015.9 hPa | 1.52 mm | 0.45 m/s, 254° | - | - |
| 1777948312 | 8.89° C | 88% | 1015.9 hPa | 1.02 mm | 0.45 m/s, 250° | - | - |
| 1777947712 | 8.89° C | 87% | 1015.8 hPa | 0.51 mm | 0.89 m/s, 255° | - | - |
| 1777947112 | 8.89° C | 89% | 1015.8 hPa | 0.51 mm | 0.45 m/s, 249° | - | - |
| 1777946514 | 9.44° C | 90% | 1015.9 hPa | 0 mm | 0.45 m/s, 239° | - | - |
| 1777945913 | 9.44° C | 91% | 1015.8 hPa | 0 mm | 0 m/s | - | - |
| 1777945313 | 9.44° C | 90% | 1015.8 hPa | 0 mm | 0 m/s | - | - |
| 1777944712 | 9.44° C | 90% | 1015.7 hPa | 0 mm | 0 m/s | - | - |
| 1777944111 | 9.44° C | 90% | 1015.8 hPa | 0 mm | 0 m/s | - | - |
| 1777943512 | 9.44° C | 89% | 1016 hPa | 0 mm | 0.89 m/s, 250° | - | - |
| 1777942912 | 9.44° C | 90% | 1016.1 hPa | 0 mm | 0 m/s | - | - |
| 1777942312 | 9.44° C | 90% | 1016.3 hPa | 0 mm | 0 m/s | - | - |
| 1777941712 | 9.44° C | 90% | 1016.7 hPa | 0 mm | 0.45 m/s, 247° | - | - |
| 1777941112 | 9.44° C | 89% | 1016.9 hPa | 0 mm | 0.45 m/s, 247° | - | - |
| 1777940511 | 9.44° C | 89% | 1017.4 hPa | 0 mm | 0.45 m/s, 252° | - | - |
| 1777939909 | 9.44° C | 90% | 1017.6 hPa | 0 mm | 0.89 m/s, 249° | - | - |
| 1777939308 | 9.44° C | 90% | 1017.8 hPa | 0 mm | 0.45 m/s, 250° | - | - |
| 1777938708 | 9.44° C | 91% | 1017.9 hPa | 0 mm | 0.89 m/s, 250° | - | - |
| 1777938108 | 9.44° C | 91% | 1018 hPa | 0 mm | 0.45 m/s, 249° | - | - |
| 1777937507 | 9.44° C | 91% | 1018.1 hPa | 0 mm | 0 m/s | - | - |
| 1777936908 | 9.44° C | 92% | 1018.2 hPa | 0 mm | 0 m/s | - | - |
| 1777936307 | 9.44° C | 91% | 1018.3 hPa | 0 mm | 0 m/s | - | - |
* Rain latest hour (hover to see other rain measurements)
** Current wind speed in m/s (hover to see current wind gust speed)